Voltar ao catálogo

STARLINK-4011

AtivoComunicaçõesVLEO
NORAD 52615·PAYLOAD·🇺🇸 United States

Lançado May 14, 2022 de Cape Canaveral Space Force Station

Loading…

Próximas Passagens (próximas 24 horas)

TLE

AtualizadoSource: CelesTrak SupGP

Época: Sep 15, 2026, 02:31 UTC

1 52615C 22052T   26258.10534722  .00051340  00000+0  14691-2 0  2580
2 52615  53.1584 141.3972 0001247  79.4816 115.2529 15.35368533    11

Acompanhe STARLINK-4011 em tempo real com AllMySat

Download on the App Store